Погода в Рахманове

Россия / Ярославская область     57°02′01″N   38°38′47″E
темп.,
°C
ветер,
м/с
пор.,
м/с
влажн.,
%
обл.,
%
осадки,
мм/ч
давл.,
гПа
погр.,
м
15 мая, сб
сб1500:00+12вюв289994 0.6 1013221
03:00+12в3999100 0.6 1012261
06:00+14вюв3109833 0.5 1009259
09:00+18юв71589100 1.3 10091068
12:00+23ююв596098 0.6 10081166
15:00+21ююз3679100 3.9 10071060
18:00+18ю4118026 1.9 1006381
21:00+13ю389695 5.6 1008218
16 мая, вс
вс1600:00+12ю210965 0.4 1009244
03:00+11ю399818 0.4 1009245
06:00+12ююз3119721 0.0 1010435
09:00+17юз510746 0.0 10111001
12:00+20юз695361 0.0 10111861
15:00+20ююз4861100 0.7 10111309
18:00+18юз387810 1.3 1012961
21:00+14юз27965 1.3 1013176
17 мая, пн
пн1700:00+12юз23970 0.0 101455
03:00+11зюз11975 0.0 101517
06:00+13ю119399 0.0 101651
09:00+19юв22706 0.0 1016544
12:00+22юв345499 0.0 10161314
15:00+23юв45527 0.0 10151318
18:00+22вюв386756 0.0 1014842
21:00+17в312907 0.3 1013285
18 мая, вт
вт1800:00+16вюв3139414 0.1 1013291
03:00+14вюв3109522 0.1 1012189
06:00+15вюв4128673 0.0 1012283
09:00+22юв5135911 0.0 1011572
12:00+25юв611468 0.0 1010960
15:00+27юв6114533 0.0 10091804
18:00+24юв51253100 0.0 1008947
21:00+20вюв616645 0.0 1008690
19 мая, ср
ср1900:00+18юв5157472 0.0 1007543
03:00+17юв4138162 0.0 1006470
06:00+16ююв4128452 0.0 1007556
09:00+20ююв596583 0.0 1006964
12:00+20ююв71475100 1.1 10071821
15:00+17ююв61184100 4.0 1007986
18:00+13ю3896100 7.1 1007383
21:00+13ю413930 7.3 1008559